Location: Browne Barr
(41.2080°N, 111.9480°W)
Time: 15:28:01
(UTC+00:00)

PRISM - Visible Passes

Search period start: 03 August 2021 00:00
Search period end: 13 August 2021 00:00
Orbit: 563 x 584 km, 98.2° (Epoch: 03 August)

Date Brightness Start Highest point End Pass type
(mag) Time Alt. Az. Time Alt. Az. Time Alt. Az.
03 Aug ? 10:50:48 10° NNE 10:54:48 61° E 10:58:14 13° S visible
04 Aug ? 10:53:48 10° NNE 10:57:49 66° ESE 11:01:14 14° S visible
05 Aug ? 10:56:48 10° NNE 11:00:50 72° ESE 11:04:14 14° S visible
06 Aug ? 10:59:47 10° NNE 11:03:50 77° ESE 11:07:14 14° S visible
07 Aug ? 11:02:47 10° NNE 11:06:51 84° ESE 11:10:14 14° SSW visible
08 Aug ? 11:05:48 10° NNE 11:09:50 90° NE 11:13:13 14° SSW visible
09 Aug ? 11:08:48 10° NNE 11:12:51 84° WNW 11:16:12 15° SSW visible
10 Aug ? 11:11:48 10° N 11:15:50 78° WNW 11:19:12 15° SSW visible
11 Aug ? 11:14:49 10° N 11:18:51 72° WNW 11:22:12 14° SSW visible
12 Aug ? 11:17:49 10° N 11:21:50 67° WNW 11:25:11 14° SSW visible
